Weather History for Grand Marais, MN

Change the Weather History Date:

Friday, January 25, 2013

  Actual Average (KCKC) Record (KCKC)
Temperature  
Mean Temperature 16 °F -  
Max Temperature 21 °F 15 °F 32 °F (2008)
Min Temperature 10 °F 0 °F -20 °F (2009)
Degree Days  
Heating Degree Days 50    
Moisture  
Dew Point 7 °F    
Average Humidity 69    
Maximum Humidity 84    
Minimum Humidity 55    
Precipitation  
Precipitation 0.21 in - - ()
Sea Level Pressure  
Sea Level Pressure 30.07 in    
Wind  
Wind Speed 12 mph (NW)    
Max Wind Speed 25 mph    
Max Gust Speed 34 mph    
Averages and records for this station are not official NWS values.
T = Trace of Precipitation, MM = Missing Value Source: NWS Daily Summary

Daily Weather History Graph

Daily Weather History Graph

Search for Another Location

Airport:

Trip Planner

Search our weather history database for the weather conditions in past years. The results will help you decide how hot, cold, wet, or windy it might be!

Date:

Astronomy

Jan. 25, 2013 Rise Set
Actual Time 7:36 AM CST 4:51 PM CST
Civil Twilight 7:02 AM CST 5:25 PM CST
Nautical Twilight 6:24 AM CST 6:03 PM CST
Astronomical Twilight 5:48 AM CST 6:39 PM CST
Moon 3:49 PM CST (1/25) 6:16 AM CST (1/25)
Length of Visible Light 10h 23m
Length of Day
9h 15m
Waxing Gibbous, 98% of the Moon is Illuminated
Jan 25
Waxing Gibbous
Jan 26
Full
Feb 3
Last Quarter
Feb 10
New
Feb 17
First Quarter

Hourly Weather History & Observations

Time (CST) Temp. Windchill Dew Point Humidity Pressure Visibility Wind Dir Wind Speed Gust Speed Precip Events Conditions
12:56 AM 19.0 °F 5.6 °F 14.0 °F 81% 30.21 in - South 13.8 mph - 0.02 in   Unknown
1:56 AM 19.9 °F 2.5 °F 14.0 °F 78% 30.16 in - SW 25.3 mph 33.4 mph 0.02 in   Unknown
2:56 AM 18.0 °F 1.7 °F 10.9 °F 74% 30.14 in - SSW 19.6 mph 28.8 mph N/A   Unknown
3:56 AM 19.0 °F 3.2 °F 14.0 °F 81% 30.08 in - SW 19.6 mph 25.3 mph 0.02 in   Unknown
4:56 AM 15.1 °F 7.7 °F 10.9 °F 84% 30.04 in - WNW 4.6 mph - 0.04 in   Unknown
5:56 AM 15.1 °F 9.4 °F 10.0 °F 80% 30.01 in - WNW 3.5 mph - 0.03 in   Unknown
6:56 AM 14.0 °F 6.5 °F 10.0 °F 84% 29.99 in - NW 4.6 mph - 0.03 in   Unknown
7:56 AM 14.0 °F 6.5 °F 8.1 °F 77% 29.98 in - Variable 4.6 mph - 0.01 in   Unknown
8:56 AM 15.1 °F - 8.1 °F 74% 29.99 in - Calm Calm - N/A   Unknown
9:56 AM 15.1 °F - 7.0 °F 70% 29.98 in - Calm Calm - N/A   Unknown
10:56 AM 18.0 °F 8.7 °F 7.0 °F 62% 29.97 in - Variable 6.9 mph - 0.04 in   Unknown
11:56 AM 19.9 °F - 7.0 °F 57% 29.96 in - Calm Calm - N/A   Unknown
12:56 PM 21.0 °F 14.6 °F 7.0 °F 55% 29.97 in - Variable 4.6 mph - N/A   Unknown
1:56 PM 19.0 °F 9.0 °F 8.1 °F 62% 29.99 in - North 8.1 mph 16.1 mph N/A   Unknown
2:56 PM 18.0 °F 6.1 °F 5.0 °F 57% 30.03 in - North 10.4 mph 17.3 mph N/A   Unknown
3:56 PM 16.0 °F - 3.0 °F 57% 30.06 in - Calm Calm - N/A   Unknown
4:56 PM 15.1 °F - 3.9 °F 61% 30.10 in - Calm Calm - N/A   Unknown
5:56 PM 14.0 °F -2.5 °F 3.9 °F 64% 30.10 in - NNW 17.3 mph 29.9 mph N/A   Unknown
6:56 PM 12.9 °F -1.6 °F 3.0 °F 65% 30.12 in - NNW 12.7 mph 27.6 mph N/A   Unknown
7:56 PM 12.0 °F -4.5 °F 1.9 °F 64% 30.14 in - NNW 16.1 mph 34.5 mph N/A   Unknown
8:56 PM 10.9 °F -5.4 °F 1.9 °F 67% 30.16 in - NNW 15.0 mph 33.4 mph N/A   Unknown
9:56 PM 10.9 °F -7.5 °F 1.0 °F 64% 30.17 in - NNW 19.6 mph 33.4 mph N/A   Unknown
10:56 PM 10.0 °F -9.1 °F 1.0 °F 67% 30.19 in - NNW 20.7 mph 32.2 mph N/A   Unknown
11:56 PM 10.0 °F -7.6 °F 1.0 °F 67% 30.23 in - NNW 17.3 mph 34.5 mph N/A   Unknown